Location: Raitis
(47.2167°N, 11.3833°E)
Time: 16:31:40
(UTC+00:00)

SJ-6B - Pass Details

Date: 03 March 2021
Orbit: 509 x 581 km, 97.6° (Epoch: 22 April)

Event Time Altitude Azimuth Distance (km) Brightness Sun altitude
Exits shadow 19:21:34 36° 203° (SSW) 922 3.9 -24.1°
Maximum altitude 19:22:56 54° 260° (W) 702 3.5 -24.3°
Drops below altitude 10° 19:26:56 10° 338° (NNW) 1,877 6.0 -25.0°
Sets 19:29:06 0° 343° (NNW) 2,769 6.9 -25.3°
